Location: *
(9.9772°S, 113.2358°E)
Time: 03:12:50
(UTC+00:00)

Daily predictions for brighter satellites

Satellite Brightness Start Highest point End
(mag) Time Altitude Azimuth Time Altitude Azimuth Time Altitude Azimuth
Cosmos 2322 Rocket 3.1 10:32:43 10° SSE 10:37:30 28° ESE 10:42:16 10° NE
SWIFT 3.5 10:39:02 10° W 10:42:57 36° NNW 10:46:51 10° NE
Meteor 2-8 Rocket 4.4 10:41:16 10° N 10:47:15 67° E 10:53:20 10° SSE
DNEPR-1 R/B 3.4 10:48:47 10° SSW 10:53:01 65° ESE 10:57:06 10° NNE
SMAP 4.4 10:48:42 10° S 10:53:09 45° WSW 10:57:34 10° NNW
Cosmos 1733 Rocket 3.8 10:50:11 10° SSW 10:54:29 58° W 10:58:48 10° N
Tiangong -2.2 10:52:44 10° SW 10:55:53 86° NW 10:59:02 10° NE
ASTEX 1 3.7 10:54:15 10° N 10:59:14 75° W 11:04:15 10° S
CZ-4B DEB 4.4 10:54:17 10° SSE 10:59:32 46° ENE 11:04:42 10° N
COSMOS 2455 4.2 10:56:45 10° SSE 11:00:42 18° ESE 11:03:23 14° E
GPS 2-15 Rocket1 4.5 10:58:07 10° WSW 11:02:20 32° S 11:06:36 10° SE
Cosmos 2227 Rocket 3.5 10:58:42 10° NE 11:02:20 18° ENE 11:05:58 10° ESE
Cosmos 1470 4.1 11:00:45 10° SE 11:03:36 19° E 11:05:30 14° ENE
SL-16 R/B 2.2 10:58:59 10° SSW 11:04:41 88° E 11:10:20 10° NNE
Intelsat 5-3 Rocket 4.1 11:05:05 10° NW 11:05:47 11° NNW 11:06:27 10° NNW
Cosmos 1674 2.8 11:02:24 10° NNE 11:05:55 44° E 11:09:27 10° SSE
ATLAS 3B R/B 2.9 10:59:41 10° NNW 11:07:18 68° ENE 11:14:41 10° SSE
Nadezhda 4 Rocket 4.0 11:03:21 10° S 11:09:37 70° E 11:15:54 10° N
Ariane H10+ 4.3 11:06:15 10° NNW 11:09:37 24° NNE 11:15:23 15° ENE
IRIDIUM 104 4.4 11:05:43 10° SSE 11:10:51 56° E 11:15:57 10° NNE
ARIANE 5 R/B 3.7 11:10:55 10° NNW 11:12:42 16° NNE 11:14:19 13° NE
ATLAS 2A CENTAUR R/B 1.1 11:08:29 10° NW 11:13:15 60° NNE 11:14:51 26° E
Atlas Centaur 2 3.1 11:10:44 10° SSW 11:15:08 30° SSE 11:18:18 19° ESE
Cosmos 2297 Rocket 2.4 11:11:03 10° N 11:16:25 46° ENE 11:21:48 10° SSE
IRIDIUM 114 4.2 11:14:46 10° S 11:20:00 73° E 11:25:11 10° N
Lacrosse 4 Rocket 1.3 11:16:09 10° SSW 11:20:11 83° WNW 11:24:11 10° NNE
GPS 2-12 Rocket1 2.9 11:16:17 10° WNW 11:20:42 84° SSW 11:23:19 25° ESE
CZ-4 R/B 4.3 11:17:17 10° SSE 11:21:27 82° ENE 11:25:32 10° N
ARIANE 5 R/B 4.2 11:12:42 10° WNW 11:25:10 31° NNW 11:27:32 18° NE
Atlas 2A Centaur Rocket 4.5 11:22:45 10° W 11:27:13 41° NNW 11:45:33 10° NE
Cosmos 1486 Rocket 4.3 11:22:54 10° S 11:27:54 44° ESE 11:31:04 21° NE
Cosmos 1763 Rocket 4.0 11:23:22 10° NNE 11:27:57 33° E 11:32:35 10° SE
KORONAS-FOTON 4.2 11:25:18 10° NNW 11:29:03 63° W 11:32:49 10° S
IRIDIUM 103 4.3 11:23:52 10° S 11:29:07 86° W 11:34:20 10° N
Cosmos 2333 Rocket 2.9 11:26:35 10° S 11:31:42 33° ESE 11:32:46 30° E
Meteor 1-15 Rocket 4.3 11:26:03 10° S 11:31:49 82° W 11:37:27 10° N
Cosmos 2219 Rocket 3.5 11:31:02 10° SSE 11:34:08 21° SE 11:34:08 21° SE
Okean O Rocket4.311:41:17N11:41:17N11:31:07SSE
Sakura Rocket 4.5 11:34:22 10° NNW 11:36:23 19° NNE 11:36:23 19° NNE
Cosmos 1437 Rocket 3.2 11:33:31 10° SSW 11:37:26 62° W 11:41:14 10° N
Cosmos 1908 Rocket 4.2 11:34:12 10° SSW 11:38:32 56° W 11:42:48 10° N
Okean 2 3.4 11:36:19 10° N 11:40:26 79° W 11:44:34 10° S
Cosmos 1626 3.6 11:40:27 10° NNW 11:43:49 37° W 11:47:13 10° SSW
COBE Rocket 3.8 11:39:00 10° SSE 11:44:11 81° ENE 11:49:12 10° N
Cosmos 1782 Rocket 3.3 11:41:46 10° S 11:46:08 77° E 11:48:03 33° NNE
NOSS 3-1 (C) 4.5 11:37:30 10° N 11:46:18 51° ENE 11:55:02 10° SE
Cosmos 1092 Rocket 3.9 11:39:57 10° S 11:46:19 78° E 11:52:38 10° N
YAOGAN 1 2.4 11:47:14 10° SSE 11:51:35 79° ENE 11:55:53 10° N
Delta 7925 Rocket 3.0 11:47:36 10° WSW 11:52:14 76° SSE 11:52:43 68° E
SJ 16-02 3.4 11:49:47 10° SSE 11:50:40 15° SSE 11:50:40 15° SSE
Cosmos 2219 3.4 11:48:19 10° N 11:53:15 49° NE 11:53:15 49° NE
USA 290 3.3 11:51:27 10° SSW 11:54:00 44° WSW 11:54:00 44° WSW
